www.pogodaiklimat.ru
ПОГОДА в Бунвилле
Время
и дата
07:35 06.02
07:55 06.02
08:15 06.02
08:35 06.02
08:55 06.02
09:15 06.02
09:35 06.02
09:55 06.02
10:15 06.02
10:35 06.02
10:55 06.02
11:15 06.02
11:35 06.02
11:55 06.02
12:15 06.02
12:35 06.02
12:55 06.02
13:15 06.02
13:35 06.02
13:55 06.02
14:15 06.02
14:35 06.02
14:55 06.02
15:15 06.02
15:35 06.02
15:55 06.02
16:15 06.02
16:35 06.02
16:55 06.02
17:15 06.02
17:35 06.02
17:55 06.02
18:15 06.02
18:35 06.02
18:55 06.02
19:15 06.02
19:35 06.02
19:55 06.02
20:15 06.02
20:35 06.02
20:55 06.02
21:15 06.02
21:35 06.02
21:55 06.02
22:15 06.02
22:35 06.02
22:55 06.02
23:15 06.02
Ветер
(напр.,м/с)
Видим. Явления Облачность Т
(С)
Тd
(С)
f
(%)
Тe
(С)
Тes
(С)
Комфортность P
(гПа)
Po
(гПа)
Тmin
(С)
Tmax
(С)
R
(мм)
R24
(мм)
S
(см)
ЮВ 6 16 км ясно +3.6 -1.6 69 -2 -2 991.1
ЮВ 6 16 км ясно +3.9 -1.5 68 -1 -1 990.8
ЮВ 6 16 км ясно +4.7 -1.2 66 0 0 990.8
ЮВ 7 16 км ясно +5.6 -1.0 62 +1 +1 990.5
ЮВ 7 16 км ясно +6.5 -0.6 60 +2 +2 990.1
ЮВ 6 16 км ясно +8.0 +0.2 58 +4 +5 989.8
ЮВ 6 16 км ясно +9.6 +1.2 56 +6 +7 989.8
ЮВ 8
{10}
16 км ясно +10.4 +2.4 58 +7 +7 989.1
ЮВ 8
{10}
16 км ясно +11.7 +3.7 58 +9 +9 988.8
ЮВ 8
{13}
16 км ясно +13.4 +5.2 58 +11 +12 988.8
ЮВ 8
{12}
16 км ясно +14.0 +6.0 59 +12 +13 988.2
ЮВ 9
{13}
16 км ясно +14.9 +6.9 59 +13 +13 987.5
ЮВ 10
{13}
16 км ясно +15.5 +7.9 61 +13 +14 987.2
ЮВ 9
{14}
16 км ясно +15.3 +8.4 63 +13 +14 986.5 -20.5 +22.2
Ю 9
{13}
16 км ясно +16.2 +9.1 63 +14 +15 985.5
ЮВ 10
{14}
16 км ясно +16.6 +9.3 62 +15 +15 984.9
Ю 10
{13}
16 км ясно +17.4 +9.5 60 +16 +16 984.2
Ю 12
{16}
16 км ясно +18.2 +9.7 58 +17 +17 983.9
Ю 10
{17}
16 км ясно +18.5 +9.7 57 +18 +18 983.5
Ю 13
{17}
16 км ясно +18.7 +9.7 56 +18 +18 982.9
Ю 11
{14}
16 км ясно +18.9 +9.7 55 +18 +19 982.2
Ю 12
{18}
16 км ясно +19.0 +9.4 54 +19 +19 982.2
Ю 9
{14}
16 км ясно +18.7 +9.4 55 +18 +19 981.6
Ю 11
{14}
16 км ясно +18.6 +9.4 55 +18 +18 981.6
Ю 10
{15}
16 км ясно +18.7 +9.3 54 +18 +18 981.6
Ю 9
{14}
16 км ясно +18.6 +9.3 55 +18 +18 981.6
Ю 10
{17}
16 км ясно +18.5 +9.5 56 +18 +18 981.6
Ю 9
{13}
16 км ясно +18.7 +9.7 56 +18 +18 981.2
Ю 9
{13}
16 км ясно +18.5 +10.0 58 +18 +18 981.6
Ю 9
{12}
16 км ясно +18.3 +10.2 59 +18 +18 981.6
Ю 7
{11}
16 км ясно +17.8 +10.3 61 +17 +17 981.6
Ю 6
{9}
16 км ясно +17.2 +10.3 64 +16 +16 981.6 -20.5 +22.2
Ю 7 16 км 8/8 1950 м +17.0 +10.3 65 +16 +16 981.9
Ю 8
{10}
16 км 10/10 1950 м +17.2 +10.4 64 +16 +16 982.2
Ю 7
{10}
16 км 8/8 1950 м +17.6 +10.0 61 +17 +17 982.2
Ю 7
{12}
16 км 5/5 1950 м +17.4 +9.8 61 +16 +16 982.2
Ю 7
{10}
16 км 5/5 1410 м +17.5 +10.0 61 +17 +17 982.5
Ю 7
{10}
16 км 10/10 1410 м +17.5 +10.2 62 +17 +17 982.9
Ю 6
{10}
16 км 10/10 1410 м +17.3 +10.4 64 +16 +16 983.2
ЮЗ 5
{8}
16 км 10/10 1290 м +17.2 +10.5 65 +17 +17 983.9
Ю 5 16 км 10/10 1230 м +16.9 +10.5 66 +16 +16 983.5
Ю 3 16 км 10/8 1800 m
[Ac]
+16.5 +10.3 67 +16 +16 983.9
ЮЗ 5 16 км 10/8 1500 m
[Ac]
+16.4 +10.3 67 +16 +16 983.9
ЮЗ 4
{8}
16 км 10/8 1440 m
[Ac]
+16.6 +10.5 67 +16 +16 983.9
ЮЗ 4
{8}
16 км 8/5 1380 m
[Ac]
+16.6 +10.7 68 +16 +16 984.2
ЮЗ 4 16 км 5/5 1380 m
[Ac]
+16.5 +10.8 69 +16 +16 984.5
ЮЗ 3
{8}
16 км ясно +16.2 +10.9 71 +16 +16 984.9
ЮЗ 4 16 км 8/8 1200 м +16.3 +11.1 71 +16 +16 984.9
Местоположение метеостанции Jesse Viertel Memorial Airport: широта 38.9467 долгота -92.6827 высота над уровнем моря 218 м.
В архиве по умолчанию представлена погода в Бунвилле за последние 1-2 суток. Обновление информации о фактической погоде в базе происходит ежечасно! Архивные данные за месяц целиком и за предыдущие месяцы Вы можете получить, выбрав интересующий диапазон дат из раскрывающегося списка и нажав кнопку "Ввод!".
Внимание! Архив погоды МЕТАР в базе сайта по станциям, не включенным в климатический монитор, хранится не более 60 дней. Нет смысла пытаться выбрать более раннюю дату.
*Определитесь, кто Вы:
Внимание! Время в таблицах - местное (без учета летнего времени). Для получения всемирного времени необходимо вычесть поправку, которая равна -6 ч.
Смотрите также архив погоды в соседних городах и на ближайших метеорологических станциях:
Партнеры нашего сайта:      
Пояснения к столбцам:
  • Ветер - указаны скорость ветра в м/с - средняя за 10 мин, порывы в срок и между сроками (в фигурных скобках) и направление, откуда дует ветер: С - северный,
  • СВ - северо-восточный, В - восточный, ЮВ - юго-восточный, Ю - южный, ЮЗ - юго-западный, З - западный, СЗ - северо-западный.
  • Видимость - горизонтальная дальность видимости в метрах или километрах. При видимости от 1 до 10 км при отсутствии осадков обычно наблюдается дымка, при ухудшении видимости до 1 км и менее - туман. В сухую погоду видимость может ухудшаться дымом, пылью или мглою.
  • Явления - указаны атмосферные явления, наблюдавшиеся в срок или в последний час перед сроком; фигурными скобками обозначены явления, наблюдавшиеся между сроками (за 1-3 часа до срока); квадратными скобками обозначены град или гололедные отложения с указанием их диаметра в мм.
  • Облачность - указаны через наклонную черту общая и нижняя облачность в баллах и высота нижней границы облаков в метрах; квадратными скобками обозначены формы облаков: Ci - перистые, Cs - перисто-слоистые, Cc - перисто-кучевые, Ac - высококучевые, As - высокослоистые, Sc - слоисто-кучевые, Ns - слоисто-дождевые, Cu - кучевые, Cb - кучево-дождевые. Подробнее классификацию облаков см. в Атласе облаков (PDF).
  • T - Температура воздуха - температура, измеренная на высоте 2 м над землей.
  • Td - Температура точки росы - температура, при понижении до которой содержащийся в воздухе водяной пар достигнет насыщения.
  • f - Относительная влажность воздуха - влажноcть воздуха, измеренная на высоте 2 м над землей.
  • Te - Эффективная температура - температура, которую ощущает одетый по сезону человек в тени. Характеристика душности погоды. При расчете учитывается влияние влажности воздуха и скорости ветра на теплоощущения человека.
  • Tes - Эффективная температура на солнце - температура, которую ощущает человек, с поправкой на солнечный нагрев. Характеристика знойности погоды. Зависит от высоты солнца над горизонтом, облачности и скорости ветра. Ночью, в пасмурную погоду, а также при ветре 12 м/с и более поправка равна нулю.
  • P - Атмосферное давление - приведенное к уровню моря атмосферное давление.
  • Po - Атмосферное давление - измеренное на уровне метеостанции атмосферное давление.
  • Tmin - Минимальная температура - минимум температуры воздуха на высоте 2 м над землей.
  • Tmax - Максимальная температура - максимум температуры воздуха на высоте 2 м над землей.
  • R - Количество осадков - Количество выпавших осадков за период времени, мм. При наведении курсора мыши на число - период времени, за который выпало указанное количество осадков.
  • R24 - Количество осадков - Количество выпавших осадков за 24 часа, мм.
  • S - Снежный покров - Высота снежного покрова, см. При наведении курсора мыши на число - состояние снежного покрова и степень покрытия местности в баллах.